CZ-6A DEB

Satellite information

Favourite Embed

Satellite Type and Status

DEBRISIN ORBIT

Key statistics

Satellite CZ-6A DEB at a glance.

Uptime

1030

Days in orbit

Revolutions

≈ 14.6

Per day

Orbit

SSO

Sun Synchronous Orbit

Inclination

98.7

Latest

Satellite identification and parameters

Extended collection of information and parameters for CZ-6A DEB.

Object identification

Identified? True

Debris? True

Object name: CZ-6A DEB

International designator: 2022-151XC

Object number (NORAD): 55235

Object ID (CCSDS): 55235

Country: PEOPLES REPUBLIC OF CHINA (PRC)

Current information (Y/N): Y

RCS size: SMALL

Orbital parameters

Period: 98.508 minutes

Inclination: 98.6539 deg

SMA: 7065.484 km

Apoapsis: 748.242 km

Periapsis: 626.455 km

RAAN: 295.1109 deg

Eccentricy: 0.00861844

Argument of periapsis: 89.0347 deg

Mean anomaly: 272.0726 deg

Mean motion: 14.61806534 rev/day

Mean motion (dot): 0.00014585 rev/day2

B* drag term: 0.0027757563 1/REarth

Two-line elements (TLE)

Creation date: Sept. 5, 2025, 7:38 p.m.

Reference frame: TEME

Reference center: EARTH

Epoch: Sept. 5, 2025, 1:53 p.m. UTC

TLE line 0: 0 CZ-6A DEB

TLE line 1: 1 55235U 22151XC 25248.57850448 .00014585 00000-0 27758-2 0 9997

TLE line 2: 2 55235 98.6539 295.1109 0086184 89.0347 272.0726 14.61806534147069

Live tracking on map

Real-time ground track for satellite CZ-6A DEB.

In-orbit conjunctions

A list of the most updated potential collisions computed for object CZ-6A DEB.

Target Orbit TCA Probability of collision Miss distance Type
CZ-6A DEB LEO 2025-04-08 16:35:51 0.0001204998 136.0 (m) DEBRIS
CZ-6A DEB LEO 2025-01-30 17:34:12 0.0009000977 207.0 (m) DEBRIS
COSMOS 1140 LEO 2025-01-23 13:56:19 0.000201175 428.0 (m) PAYLOAD
COSMOS 2251 DEB LEO 2024-11-11 11:19:42 0.0002209621 944.0 (m) DEBRIS

Associated space launch

Chinese satellite reported for atmospheric/ocean/environmental/spatial parameter research purposes, details TBD.

CZ-6A DEB was lifted into orbit during the mission ‘Long March 6A | Yunhai 3’, on board a Long March 6A space rocket.

The launch took place on Nov. 11, 2022, 10:52 p.m. from Launch Complex 9A.

For more information about the launch, click the button.

Launch to space Long March 6A | Yunhai 3
Long March 6A | Yunhai 3

Agency: N/A

Status: Launch Successful

Launch date: Nov. 11, 2022, 10:52 p.m. UTC

Rocket: Long March 6A

Launch pad: Launch Complex 9A

Location: Taiyuan Satellite Launch Center, People's Republic of China

...

Latest news about this satellite

There are no fresh news available about this satellite. Check back as we update our databases every day.


Newsletter sign-up

Weekly statistics, charts and insights to help you stay on top of the space industry.